GFSGL_con_lsi_159.txt.gz
Lid_Strength_Index
3 2 2 2 1 1 1 2 2 2 3 3 2 2 2 2 2 2 2 2 2 2 2 3 3 2 2 2 3 3 4 4 5 6 9 10 10 10 11 10 11 11 9
3 3 3 2 2 2 2 2 2 3 3 3 3 2 2 2 2 3 3 3 2 3 3 3 2 2 3 3 3 4 4 4 5 5 11 12 11 11 10 11 12 11 11
3 3 3 3 2 2 2 2 3 3 3 3 3 2 3 3 3 3 3 3 3 3 3 3 3 4 4 4 4 4 5 5 5 9 12 13 14 13 13 13 12 13 13
3 3 3 3 2 3 2 3 3 3 3 3 2 3 3 3 3 3 4 3 3 4 4 4 4 5 4 6 7 6 7 8 9 12 13 14 14 14 13 14 14 14 13
4 4 3 3 3 3 3 3 3 4 4 3 3 3 3 4 6 6 6 5 6 7 8 8 7 8 9 7 7 7 8 10 11 11 13 14 14 14 14 13 13 13 14
5 4 4 5 5 5 6 6 7 8 7 7 8 7 8 11 11 10 9 9 9 10 10 9 9 12 10 10 9 8 7 9 12 11 12 12 12 13 13 13 13 15 16
7 8 8 8 9 9 10 10 11 11 11 11 11 11 11 12 11 10 11 10 9 9 9 10 11 11 12 11 10 10 9 8 8 10 12 11 12 12 12 13 13 13 14
12 12 12 11 13 13 13 12 13 13 12 13 13 11 12 12 10 10 12 10 10 10 11 11 11 12 12 12 12 13 13 12 11 11 11 11 11 11 12 12 12 13 15
14 13 13 12 13 13 13 13 13 13 13 13 13 13 12 12 10 11 12 12 13 13 13 12 12 12 12 11 13 13 13 13 11 10 11 10 10 10 12 13 14 15 16
14 13 13 12 13 13 13 13 14 13 14 14 14 13 13 13 10 11 12 14 14 14 14 14 13 13 12 11 13 13 13 13 13 13 13 12 11 11 11 13 14 14 15
14 13 13 13 13 13 14 14 14 14 14 14 14 14 14 13 12 12 12 13 13 14 14 14 14 12 11 11 11 13 13 13 12 13 13 13 13 13 13 13 13 13 13
14 13 14 14 14 13 14 14 13 13 14 14 15 15 15 15 14 12 11 12 12 13 14 14 14 12 12 11 12 11 11 13 13 13 13 14 14 14 14 14 14 14 14
13 14 13 13 13 13 13 13 14 14 14 15 15 16 16 16 15 13 12 12 12 14 14 13 12 12 12 12 12 11 13 13 13 14 14 14 14 14 15 15 16 16 16
13 14 14 14 14 14 14 14 14 14 15 15 16 16 16 16 15 15 14 14 14 13 13 13 12 13 13 13 13 13 13 13 13 14 14 14 14 15 15 15 16 16 17
14 15 15 15 15 15 15 15 15 15 15 16 15 15 16 16 15 13 13 14 13 13 14 13 13 14 14 14 14 15 13 13 14 14 14 14 15 15 16 16 16 17 18
16 16 16 15 16 16 16 16 14 14 14 14 14 15 15 14 13 12 12 12 11 12 13 14 15 14 16 15 15 15 14 14 13 13 14 14 15 16 16 16 17 17 18
17 17 17 17 17 17 17 17 18 16 15 15 14 14 14 14 13 12 12 12 12 13 14 15 15 15 15 15 15 15 15 14 14 14 14 15 15 16 16 16 17 17 18
18 18 18 18 18 18 17 18 18 20 21 22 17 16 15 15 15 14 14 16 18 18 18 19 20 19 19 19 18 18 17 16 15 15 15 16 17 16 16 17 17 17 17
19 19 19 20 20 20 20 21 21 22 23 24 24 22 21 17 18 18 18 22 23 24 24 24 24 23 23 22 22 21 20 20 19 18 17 18 18 17 16 16 16 17 17
21 20 20 21 21 21 22 23 24 24 25 25 25 26 26 25 26 27 27 27 27 27 27 27 26 25 25 25 24 24 24 23 23 22 22 21 20 20 19 18 17 17 16
22 23 23 23 23 23 23 24 24 25 26 26 26 22 24 27 29 29 29 29 28 28 28 28 27 26 27 28 28 27 27 27 27 26 25 24 23 23 21 20 19 17 16
24 24 24 25 25 25 25 25 26 27 27 27 28 26 25 29 30 30 30 30 30 30 30 29 29 29 30 30 30 29 30 29 29 28 27 27 26 25 24 22 21 19 17
25 25 25 26 26 26 27 27 27 28 28 29 29 29 29 30 30 30 30 30 31 32 31 31 31 31 32 33 32 31 31 30 30 30 29 28 27 25 24 23 21 20 18
25 25 26 26 27 27 27 28 29 29 29 30 30 30 30 31 31 31 31 32 32 33 35 36 34 34 35 34 33 33 33 33 32 30 29 29 28 26 24 23 21 20 19
26 27 27 27 27 28 28 28 29 29 29 29 30 30 31 32 32 33 33 34 35 36 35 36 36 35 35 35 34 34 34 30 30 30 29 29 27 25 24 22 21 20 20
28 28 29 28 29 29 29 29 30 30 30 31 31 32 34 34 34 34 34 37 36 35 35 36 35 35 35 34 33 31 28 25 25 26 24 24 23 23 23 23 22 22 21

GFSGL_con_lsi_165.txt.gz
Lid_Strength_Index
3 3 2 2 1 1 1 1 1 1 1 1 1 2 2 2 1 1 2 2 2 3 2 3 1 1 1 1 1 1 2 2 4 3 3 4 6 6 8 7 8 8 8
4 4 4 3 2 1 1 1 1 1 1 1 1 2 2 2 2 2 2 2 3 3 3 3 2 1 2 1 2 3 3 2 3 5 6 7 8 9 9 10 9 9 9
3 3 3 3 3 2 1 1 1 1 1 1 1 2 2 3 3 3 3 3 3 3 3 4 2 2 2 2 2 3 3 3 3 5 7 11 12 12 13 12 11 11 10
3 3 3 3 3 2 1 1 1 1 1 1 1 2 2 3 4 3 3 3 3 3 4 4 2 2 3 3 3 3 4 4 6 10 13 13 13 14 14 13 13 13 12
3 3 3 3 3 2 1 1 1 1 2 1 2 2 2 3 4 4 4 3 4 4 5 4 3 5 8 5 4 5 6 8 12 12 14 14 14 15 14 13 13 14 13
3 3 4 3 2 2 2 2 2 2 2 2 2 2 3 4 7 8 5 4 5 6 6 6 7 11 10 10 10 9 7 9 12 12 13 13 13 14 13 14 14 14 13
3 4 4 4 3 2 2 3 4 3 3 3 3 3 4 5 10 9 9 5 5 6 7 8 12 12 12 11 11 11 11 9 9 10 12 12 13 12 13 14 14 13 13
5 5 5 5 3 3 5 5 5 4 4 4 4 4 5 8 10 10 11 7 8 9 10 11 12 12 13 12 12 13 14 11 11 11 11 12 12 12 12 12 13 13 14
8 7 7 7 7 7 7 5 7 9 9 7 8 9 9 12 11 11 10 12 14 14 13 11 11 12 12 12 13 14 13 13 10 10 11 11 10 11 12 12 13 13 14
8 9 9 9 9 8 8 10 13 11 13 13 14 13 13 13 12 12 12 13 14 15 15 15 14 13 12 12 12 12 12 14 13 14 14 13 13 12 11 13 13 13 14
11 12 12 12 12 12 13 14 13 14 14 14 14 14 14 13 12 12 12 13 13 15 15 15 14 12 11 11 11 12 12 13 13 14 15 14 13 13 13 13 13 13 13
13 13 13 14 14 14 14 13 14 14 14 15 15 15 15 15 13 12 12 12 12 14 14 14 13 11 10 10 11 10 11 12 14 15 14 14 13 13 13 13 13 13 14
13 14 14 14 14 14 14 13 13 13 14 15 15 15 16 15 14 13 13 13 13 14 14 13 11 10 10 10 10 12 14 14 14 14 14 14 14 14 14 14 15 16 16
14 14 14 14 14 14 14 14 14 14 14 15 15 16 15 15 14 14 14 14 14 13 12 12 12 12 11 12 13 13 14 14 14 14 15 14 14 14 15 15 15 15 16
14 15 14 14 14 14 15 14 14 14 14 15 15 15 15 16 15 14 13 13 13 12 13 13 13 13 14 15 15 15 15 14 15 14 14 15 15 15 15 15 15 15 17
14 14 14 14 14 14 14 15 12 13 13 13 13 14 14 13 11 11 11 11 11 11 13 14 15 15 15 15 16 16 15 14 14 15 15 15 16 16 16 15 15 16 17
14 15 14 15 15 14 14 14 15 13 11 11 11 11 11 11 11 11 11 11 11 12 14 14 15 15 16 16 15 15 16 16 16 16 16 15 16 16 16 16 16 16 16
14 14 14 14 14 14 14 14 14 15 16 15 12 12 11 11 11 11 12 14 16 15 15 16 17 17 17 17 17 17 17 17 17 17 17 17 17 17 17 17 17 17 17
15 15 14 14 14 15 16 17 17 18 19 20 19 19 17 15 16 16 16 18 19 20 20 19 19 19 19 20 20 20 20 21 21 20 20 21 21 22 22 21 21 20 19
16 16 16 16 17 17 18 18 19 19 20 21 22 23 22 20 22 22 21 21 21 21 21 21 21 22 22 22 22 22 22 23 23 23 23 23 24 24 24 25 24 24 24
18 18 17 18 18 19 19 20 21 21 22 23 23 21 20 23 23 23 23 23 23 22 22 22 23 24 24 24 23 24 25 25 26 25 26 26 27 27 26 25 25 26 26
20 20 20 20 20 21 21 22 22 23 23 24 24 22 21 24 24 24 25 25 25 25 24 24 24 25 25 25 25 25 26 27 27 27 27 28 28 27 27 27 28 27 27
22 22 22 22 22 22 23 23 24 24 25 25 25 25 25 25 25 25 26 26 26 26 26 25 26 26 27 28 27 27 28 29 29 29 29 29 29 29 29 29 29 30 30
22 23 23 23 23 24 24 25 25 25 25 25 25 25 26 26 26 26 26 26 26 27 27 27 27 27 29 29 29 30 30 31 31 31 31 31 31 29 30 30 30 30 29
23 23 23 24 24 25 25 25 26 26 26 26 26 26 26 26 27 26 27 27 27 27 28 28 28 29 30 32 32 32 30 29 32 30 32 32 32 32 32 32 31 31 31
24 24 24 24 24 25 25 25 26 26 26 26 26 27 27 27 27 27 27 28 28 28 28 28 28 30 30 31 32 31 28 27 30 30 32 31 30 30 30 30 31 31 30

GFSGL_con_lsi_171.txt.gz
Lid_Strength_Index
6 6 6 6 6 5 5 4 4 3 1 1 1 1 1 2 1 1 1 1 2 2 2 2 3 4 4 4 4 4 5 5 6 5 5 5 5 4 7 5 6 6 7
7 7 6 6 6 6 6 5 6 5 4 3 1 1 1 1 1 2 2 1 2 2 2 3 2 2 3 3 3 4 5 4 4 5 6 8 7 7 7 7 8 9 8
6 6 6 6 6 6 6 6 6 6 6 5 4 3 1 1 1 1 1 2 2 2 2 2 2 2 3 3 3 4 4 4 4 4 6 9 11 11 11 12 10 10 10
6 6 6 6 6 7 6 6 6 5 5 5 5 4 3 1 1 1 1 2 2 1 2 2 2 3 2 2 3 4 5 5 4 5 8 12 12 14 13 13 14 14 13
7 6 6 5 5 6 6 6 5 5 5 4 4 4 3 2 1 1 1 2 2 2 2 2 2 3 6 4 3 4 4 5 6 6 13 15 15 15 13 13 13 14 15
7 7 6 6 6 6 6 6 6 5 5 5 5 4 4 3 3 5 4 2 2 2 2 2 2 9 8 8 7 6 4 5 8 7 8 10 12 13 14 14 14 14 13
8 7 7 7 7 7 7 7 7 7 6 6 5 4 4 3 3 5 7 2 2 2 2 2 3 4 7 4 7 7 8 7 7 6 10 10 11 12 13 14 15 14 13
9 9 9 9 9 9 9 9 8 8 7 7 6 5 4 2 4 6 8 3 2 2 2 2 2 4 5 5 5 6 6 7 8 7 7 8 10 11 10 12 13 16 15
11 11 10 11 10 9 9 9 9 9 8 8 7 6 5 4 4 6 7 4 3 3 2 2 2 4 7 8 6 10 13 14 11 11 11 11 11 11 12 13 14 14 15
11 11 10 10 10 10 10 10 9 9 9 9 9 8 8 6 5 6 6 4 4 5 4 5 10 5 8 8 7 12 14 15 14 14 13 14 13 13 12 14 13 13 14
11 11 10 10 10 10 10 10 11 11 11 11 11 10 9 10 8 7 7 4 4 5 7 12 9 9 10 9 9 12 13 14 14 15 15 15 15 15 15 14 14 13 13
12 11 11 10 10 11 11 11 11 11 12 12 12 12 13 13 12 10 9 9 6 9 10 11 11 11 10 11 12 13 13 14 15 15 15 15 16 16 16 16 15 15 15
12 12 11 10 10 11 12 12 12 12 12 13 13 14 14 13 13 12 10 10 11 13 13 12 12 12 12 13 13 14 15 14 15 15 15 16 16 16 17 17 16 16 16
13 12 11 11 11 11 12 12 12 12 13 13 14 15 15 15 14 14 13 13 13 13 13 14 14 14 14 15 15 15 15 14 14 16 16 17 17 17 16 16 17 17 18
14 13 11 10 11 11 12 12 13 13 13 14 14 14 14 14 15 13 14 14 15 14 15 14 15 15 16 16 16 15 15 15 16 16 17 17 17 16 16 16 17 18 18
16 14 12 10 11 12 12 12 12 11 11 11 11 13 14 12 12 13 13 13 13 13 15 15 16 16 16 16 16 17 16 16 16 16 16 16 17 17 17 17 17 17 18
17 16 13 11 11 12 13 13 15 13 12 11 11 11 12 12 12 12 12 12 13 14 15 16 17 17 17 17 16 17 17 16 16 16 16 16 16 17 17 18 18 18 20
20 17 14 11 11 11 12 13 15 15 15 15 12 12 12 12 12 13 13 14 17 16 16 17 17 17 17 17 17 17 17 17 17 17 18 17 17 17 18 19 20 21 22
21 18 14 11 11 12 13 14 16 17 17 18 17 16 15 14 15 15 15 17 19 19 19 19 19 19 19 19 19 19 18 19 19 20 21 20 20 20 22 23 23 23 24
21 17 14 12 13 14 14 16 16 19 19 19 19 19 18 18 20 20 20 20 21 21 21 21 21 21 20 20 21 21 21 22 22 23 23 23 24 23 25 25 25 26 29
19 16 15 16 16 15 15 17 18 19 20 19 18 18 18 21 23 23 23 23 23 23 23 23 23 23 23 22 23 23 24 25 25 25 25 26 25 26 26 26 28 28 30
19 19 19 18 17 17 17 18 19 21 22 23 22 20 20 23 24 25 25 25 25 25 24 24 25 25 25 25 25 25 26 26 26 26 27 27 27 28 28 28 29 31 33
21 21 21 20 19 19 19 20 21 22 24 24 24 24 24 25 25 26 26 26 26 26 26 26 26 27 27 27 26 25 26 26 27 27 27 28 29 30 29 30 31 34 35
22 21 21 20 19 20 21 21 22 23 23 24 24 24 25 26 26 27 27 27 27 27 26 26 27 27 28 28 28 27 27 28 28 28 28 29 30 30 32 35 35 36 35
22 22 20 20 21 21 22 23 24 24 25 25 25 25 26 26 27 27 27 27 27 27 27 27 27 27 28 28 28 29 26 28 30 29 30 30 31 32 35 37 38 38 38
22 21 21 21 21 22 23 24 24 25 25 26 26 25 25 26 26 26 27 27 27 27 27 27 27 28 28 28 29 28 26 27 29 29 31 31 34 38 39 38 38 39 39

GFSGL_con_lsi_174.txt.gz
Lid_Strength_Index
7 7 7 7 7 7 7 6 6 5 5 4 2 1 1 2 1 2 1 1 1 1 2 2 2 1 1 2 2 2 3 5 6 6 6 5 7 6 7 6 6 6 5
7 7 7 7 7 7 7 7 7 6 5 5 4 4 4 3 1 1 2 1 2 2 2 2 2 1 2 1 1 3 3 3 4 6 6 8 7 8 7 7 7 7 6
8 8 7 7 7 7 7 7 6 7 7 7 7 6 6 6 5 4 3 1 1 2 2 2 2 2 2 2 2 2 2 3 3 4 5 8 10 11 12 12 11 10 10
8 8 8 8 7 7 7 7 7 7 7 7 7 6 6 6 6 5 4 3 1 1 1 1 1 2 2 2 2 2 2 2 4 4 4 10 10 14 14 11 13 15 13
9 9 9 8 8 8 8 8 8 8 7 7 7 7 6 6 6 5 5 4 3 2 1 1 1 2 5 3 2 2 2 3 4 5 6 13 13 16 11 13 9 13 14
9 9 9 9 9 9 9 8 8 8 8 8 8 7 7 6 6 6 6 5 4 3 2 2 1 6 7 8 7 5 3 3 4 5 5 8 7 7 12 11 10 15 13
10 9 9 10 10 10 10 10 10 9 8 8 7 7 7 6 6 6 7 5 4 3 3 2 2 2 5 3 6 6 6 5 4 3 6 6 6 8 9 12 12 13 13
11 11 11 11 11 11 10 10 9 8 8 8 7 7 7 6 7 7 7 5 4 3 2 2 2 2 2 3 3 4 4 4 4 4 3 5 5 8 7 8 11 15 15
12 12 11 11 11 10 10 10 9 9 9 9 8 8 8 8 8 7 7 6 5 4 2 2 2 2 4 7 5 4 5 5 5 6 5 5 8 9 10 12 14 13 16
13 12 11 11 11 10 10 10 9 9 10 10 10 9 10 9 8 8 8 7 7 6 5 4 7 5 5 7 5 4 5 6 9 12 12 10 10 11 11 9 11 13 16
12 12 12 12 11 10 10 9 10 10 10 10 10 10 10 10 10 9 9 10 10 9 7 5 4 5 7 7 7 5 5 11 11 14 14 14 14 14 14 15 14 12 14
13 13 13 12 11 10 10 10 10 10 10 10 10 10 10 10 10 11 11 11 10 10 9 7 5 8 8 8 7 6 10 11 13 13 14 15 15 16 16 16 16 16 15
15 15 14 13 11 10 10 10 10 10 11 10 11 11 11 11 12 12 12 12 11 11 10 9 10 10 10 9 9 10 13 13 14 14 15 15 16 17 17 17 17 17 17
18 16 14 13 12 10 10 10 10 10 11 11 11 11 12 12 13 13 13 13 13 13 13 13 12 13 12 13 13 12 13 13 14 15 16 16 17 17 17 16 18 18 19
18 17 15 14 12 11 10 10 10 10 10 10 10 11 13 13 13 12 12 14 14 14 14 14 14 14 15 15 15 15 15 15 15 15 16 17 18 18 18 18 18 18 20
20 19 17 16 14 12 11 10 9 9 8 8 8 10 12 11 11 11 12 12 12 12 14 15 15 15 15 15 15 15 15 16 16 16 17 17 18 18 18 18 18 18 20
22 21 20 18 16 14 11 11 11 10 9 9 9 9 10 11 11 11 12 12 12 13 14 15 16 16 16 16 16 17 17 17 16 17 17 17 18 18 19 19 19 19 19
24 23 22 20 17 14 11 11 11 12 13 13 12 11 12 12 12 12 13 14 17 17 17 17 17 17 17 17 17 17 17 17 17 17 17 17 18 18 19 19 19 19 20
24 23 21 20 17 14 12 11 12 13 14 15 15 14 15 15 15 15 15 18 19 19 19 19 18 18 19 19 19 19 19 19 19 19 19 18 18 18 19 19 20 21 23
23 22 21 19 16 14 13 13 14 15 16 16 16 17 16 18 20 20 20 20 20 21 21 21 21 20 20 20 20 20 20 21 21 21 21 21 21 20 22 22 22 24 25
23 22 20 19 17 16 16 16 16 17 17 17 16 16 17 21 23 23 23 23 23 23 22 22 22 22 22 21 21 22 23 23 23 24 24 24 24 25 25 25 26 26 26
23 21 19 19 19 20 20 19 19 18 20 20 19 18 18 22 24 24 24 24 25 25 24 24 25 25 24 24 23 23 24 25 26 26 26 26 26 26 26 27 27 28 28
20 20 21 22 22 21 22 21 21 20 21 21 20 21 21 23 24 25 26 25 25 25 25 25 25 26 26 25 25 24 24 26 26 25 26 26 27 27 27 28 28 29 30
22 21 22 22 23 23 22 21 20 20 21 21 22 22 24 25 26 26 26 26 26 26 26 26 26 27 27 27 26 26 26 26 25 25 25 26 27 28 28 29 29 30 30
24 24 23 24 24 23 22 21 22 22 22 23 23 24 24 25 26 26 26 26 26 27 27 27 27 27 27 27 27 26 26 27 27 26 26 27 28 29 29 29 31 31 32
24 23 24 23 22 22 22 23 23 23 23 23 23 24 25 26 26 26 26 26 27 27 27 27 27 27 28 28 27 26 25 26 28 27 27 27 28 30 30 31 31 32 33